Bluefield, WV

5:48 AM EDT on April 24, 2018 (GMT -0400)
Mercer County

Weather History for KBLF - July, 2013

Change the Weather History Date:

Thursday, July 18, 2013

  Actual Average Record
Temperature  
Mean Temperature 79 °F 73 °F  
Max Temperature 89 °F 81 °F 90 °F (1977)
Min Temperature 68 °F 65 °F 52 °F (1976)
Degree Days  
Heating Degree Days 0 0  
Month to date heating degree days 0 0  
Since 1 June heating degree days 0 22  
Since 1 July heating degree days 0 0  
Cooling Degree Days 14 8  
Month to date cooling degree days 184 144  
Year to date cooling degree days 489 401  
Since 1 June cooling degree days 375 310  
Growing Degree Days 28 (Base 50)    
Moisture  
Dew Point 67 °F    
Average Humidity 73    
Maximum Humidity 90    
Minimum Humidity 55    
Precipitation  
Precipitation 0.00 in 0.14 in 0.25 in (2005)
Month to date precipitation 1.93 2.49  
Year to date precipitation 25.29 23.45  
Snow  
Snow 0.00 in - - ()
Month to date snowfall 0.0  
Since 1 June snowfall 0.0  
Since 1 July snowfall 0.0  
Snow Depth 0.00 in    
Sea Level Pressure  
Sea Level Pressure 30.24 in    
Wind  
Wind Speed 3 mph (WSW)    
Max Wind Speed 10 mph    
Max Gust Speed 13 mph    
Visibility 6 miles    
Events Fog , Thunderstorm    
T = Trace of Precipitation, MM = Missing Value Source: NWS Daily Summary

Daily Weather History Graph

Daily Weather History Graph

Search for Another Location

Airport or City:

Astronomy

Jul. 18, 2013 Rise Set
Actual Time 6:18 AM EDT 8:43 PM EDT
Civil Twilight 5:48 AM EDT 9:13 PM EDT
Nautical Twilight 5:11 AM EDT 9:50 PM EDT
Astronomical Twilight 4:30 AM EDT 10:30 PM EDT
Moon 4:39 PM EDT (7/18) 2:06 AM EDT (7/18)
Length of Visible Light 15h 24m
Length of Day
14h 24m
Waxing Gibbous, 77% of the Moon is Illuminated
Jul 18
Waxing Gibbous
Jul 22
Full
Jul 29
Last Quarter
Aug 6
New
Aug 14
First Quarter

Hourly Weather History & Observations

Time (EDT) Temp. Heat Index Dew Point Humidity Pressure Visibility Wind Dir Wind Speed Gust Speed Precip Events Conditions
12:52 AM 70.0 °F - 66.0 °F 87% 30.21 in 10.0 mi Calm Calm - N/A   Clear
1:52 AM 70.0 °F - 66.0 °F 87% 30.20 in 10.0 mi WSW 3.5 mph - N/A   Scattered Clouds
2:52 AM 70.0 °F - 64.9 °F 84% 30.19 in 6.0 mi WNW 3.5 mph - N/A   Haze
3:37 AM 69.8 °F - 64.4 °F 83% 30.31 in 4.0 mi West 4.6 mph - N/A   Scattered Clouds
3:45 AM 69.8 °F - 64.4 °F 83% 30.30 in 1.2 mi WSW 5.8 mph - N/A   Partly Cloudy
3:47 AM 69.8 °F - 64.4 °F 83% 30.30 in 0.8 mi SW 4.6 mph - N/A   Mist
3:52 AM 69.1 °F - 64.9 °F 87% 30.17 in 0.5 mi WSW 4.6 mph - N/A Fog Fog
3:56 AM 69.8 °F - 64.4 °F 83% 30.30 in 1.2 mi SW 4.6 mph - N/A   Scattered Clouds
4:01 AM 69.8 °F - 64.4 °F 83% 30.30 in 3.0 mi WSW 4.6 mph - N/A   Scattered Clouds
4:52 AM 69.1 °F - 64.0 °F 84% 30.18 in 9.0 mi WSW 3.5 mph - N/A   Clear
5:15 AM 69.8 °F - 64.4 °F 83% 30.30 in 2.0 mi West 5.8 mph - N/A   Partly Cloudy
5:17 AM 69.8 °F - 64.4 °F 83% 30.30 in 0.8 mi WSW 5.8 mph - N/A   Mist
5:31 AM 68.0 °F - 64.4 °F 88% 30.29 in 0.2 mi WSW 3.5 mph - N/A Fog Fog
5:44 AM 68.0 °F - 64.4 °F 88% 30.29 in 1.2 mi WSW 4.6 mph - N/A   Mostly Cloudy
5:47 AM 68.0 °F - 64.4 °F 88% 30.29 in 3.0 mi WSW 4.6 mph - N/A   Mostly Cloudy
5:52 AM 69.1 °F - 64.0 °F 84% 30.18 in 8.0 mi WSW 4.6 mph - N/A   Scattered Clouds
6:16 AM 69.8 °F - 64.4 °F 83% 30.30 in 7.0 mi WSW 6.9 mph - N/A   Mostly Cloudy
6:52 AM 70.0 °F - 66.0 °F 87% 30.19 in 6.0 mi West 3.5 mph - 0.01 in   Overcast
7:17 AM 71.6 °F - 66.2 °F 83% 30.31 in 4.0 mi Calm Calm - N/A   Overcast
7:52 AM 72.0 °F - 66.9 °F 84% 30.20 in 4.0 mi WNW 3.5 mph - N/A   Haze
8:16 AM 71.6 °F - 66.2 °F 83% 30.31 in 2.0 mi WSW 3.5 mph - N/A   Haze
8:24 AM 71.6 °F - 66.2 °F 83% 30.32 in 1.0 mi WSW 4.6 mph - N/A   Haze
8:32 AM 71.6 °F - 66.2 °F 83% 30.32 in 0.2 mi West 3.5 mph - N/A   Haze
8:52 AM 73.0 °F - 68.0 °F 84% 30.21 in 0.5 mi Calm Calm - N/A   Haze
9:02 AM 73.4 °F - 68.0 °F 83% 30.33 in 1.2 mi Calm Calm - N/A   Haze
9:14 AM 73.4 °F - 69.8 °F 88% 30.33 in 2.5 mi Calm Calm - N/A   Haze
9:22 AM 75.2 °F - 69.8 °F 83% 30.33 in 3.0 mi Calm Calm - N/A   Haze
9:39 AM 75.2 °F - 69.8 °F 83% 30.33 in 4.0 mi West 3.5 mph - N/A   Haze
9:52 AM 75.0 °F - 69.1 °F 82% 30.21 in 5.0 mi Calm Calm - N/A   Haze
10:13 AM 78.8 °F - 69.8 °F 74% 30.32 in 6.0 mi Calm Calm - N/A   Haze
10:52 AM 79.0 °F - 69.1 °F 72% 30.20 in 9.0 mi Calm Calm - N/A   Overcast
11:04 AM 80.6 °F 83.9 °F 69.8 °F 70% 30.32 in 9.0 mi Calm Calm - N/A   Overcast
11:52 AM 82.9 °F 87.0 °F 70.0 °F 65% 30.19 in 10.0 mi Calm Calm - N/A   Scattered Clouds
12:03 PM 82.4 °F 87.2 °F 71.6 °F 70% 30.31 in 10.0 mi ESE 3.5 mph - N/A   Mostly Cloudy
12:11 PM 82.4 °F 86.3 °F 69.8 °F 66% 30.31 in 10.0 mi Calm Calm - N/A   Scattered Clouds
12:52 PM 84.9 °F 89.4 °F 70.0 °F 61% 30.18 in 10.0 mi East 3.5 mph - N/A   Clear
1:52 PM 87.1 °F 92.0 °F 70.0 °F 57% 30.16 in 10.0 mi Variable 3.5 mph - N/A   Scattered Clouds
2:13 PM 87.8 °F 91.4 °F 68.0 °F 52% 30.29 in 10.0 mi Variable 3.5 mph - N/A   Mostly Cloudy
2:20 PM 86.0 °F 89.4 °F 68.0 °F 55% 30.28 in 10.0 mi ENE 4.6 mph - N/A   Scattered Clouds
2:43 PM 86.0 °F 91.8 °F 71.6 °F 62% 30.27 in 10.0 mi Variable 3.5 mph - N/A Thunderstorm Partly Cloudy
2:52 PM 86.0 °F 90.7 °F 70.0 °F 59% 30.14 in 10.0 mi SSE 6.9 mph - N/A Thunderstorm Partly Cloudy
3:20 PM 86.0 °F 89.4 °F 68.0 °F 55% 30.25 in 10.0 mi ESE 3.5 mph - N/A   Clear
3:52 PM 86.0 °F 89.4 °F 68.0 °F 55% 30.12 in 10.0 mi ESE 3.5 mph - N/A   Clear
4:52 PM 80.1 °F 82.7 °F 68.0 °F 67% 30.11 in 10.0 mi WSW 6.9 mph - N/A   Clear
5:52 PM 78.1 °F - 68.0 °F 71% 30.12 in 10.0 mi SW 3.5 mph - N/A   Mostly Cloudy
6:52 PM 78.1 °F - 66.9 °F 68% 30.12 in 10.0 mi West 5.8 mph - N/A   Clear
7:52 PM 77.0 °F - 66.9 °F 71% 30.11 in 10.0 mi Calm Calm - N/A   Clear
8:52 PM 75.0 °F - 68.0 °F 79% 30.10 in 10.0 mi Calm Calm - N/A   Scattered Clouds
9:52 PM 75.9 °F - 66.0 °F 71% 30.12 in 10.0 mi Calm Calm - N/A   Clear
10:52 PM 73.9 °F - 66.9 °F 79% 30.12 in 10.0 mi Calm Calm - N/A   Clear
11:52 PM 75.0 °F - 66.9 °F 76% 30.11 in 10.0 mi Calm Calm - N/A   Clear